Voltar ao catálogo

CZ-6A DEB

AtivoPO
NORAD 60822·DEBRIS·🇨🇳 China

Lançado Aug 6, 2024 de Taiyuan Satellite Launch Center

Loading…

Próximas Passagens (próximas 24 horas)

TLE

AtualizadoSource: Space-Track

Época: Sep 14, 2026, 11:13 UTC

1 60822U 24140GZ  26257.46747830  .00000258  00000-0  55382-4 0  9992
2 60822  89.0018 260.5306 0116153 334.2548  25.2904 14.51495260110522

Acompanhe CZ-6A DEB em tempo real com AllMySat

Download on the App Store